�N����,����,�~����,�C��,���x,�C��,����,���ϕ���,�ő�u�ԕ���,�ő厞����,���˗�,�I�_���x,�n�����x,�ő啗���N��,DTYPE
"21/05/19","00:10",0.0,19.4,95.8,1006.2,309.2,0.7,1.1,317.3,0.00,18.8,130.0,"00:04:24",1
"21/05/19","00:20",0.0,19.4,95.8,1006.2,296.4,0.7,1.3,321.5,0.00,18.8,130.0,"00:14:32",1
"21/05/19","00:30",0.0,19.4,95.9,1006.0,291.1,0.5,0.9,319.7,0.00,18.8,130.0,"00:24:56",1
"21/05/19","00:40",0.0,19.4,95.9,1006.4,278.9,0.5,0.8,321.2,0.00,18.8,130.0,"00:38:16",1
"21/05/19","00:50",0.0,19.4,95.9,1006.4,303.0,0.7,1.0,317.2,0.00,18.8,130.0,"00:47:52",1
"21/05/19","01:00",0.0,19.6,96.0,1006.0,337.2,0.8,1.8,330.9,0.00,19.0,130.0,"00:54:48",1
"21/05/19","01:10",0.0,19.5,96.0,1005.7,306.1,0.7,1.4,345.9,0.00,18.9,130.0,"01:02:48",1
"21/05/19","01:20",0.0,19.4,96.0,1006.2,300.3,0.5,0.9,273.9,0.00,18.8,130.0,"01:10:16",1
"21/05/19","01:30",0.0,19.5,96.0,1006.0,329.1,0.6,1.0,320.7,0.00,18.9,130.0,"01:21:36",1
"21/05/19","01:40",0.0,19.5,96.1,1006.2,318.1,1.0,1.4,317.8,0.00,18.9,130.0,"01:36:24",1
"21/05/19","01:50",0.0,19.5,96.1,1006.2,310.1,0.6,1.0,315.7,0.00,18.9,130.0,"01:44:56",1
"21/05/19","02:00",0.0,19.4,96.1,1006.2,241.4,0.1,0.9,270.7,0.00,18.8,130.0,"01:59:52",1
"21/05/19","02:10",0.0,19.5,96.2,1006.0,324.4,0.8,1.1,329.4,0.00,18.9,130.0,"02:09:12",1
"21/05/19","02:20",0.0,19.5,96.2,1006.0,325.2,1.0,1.2,330.4,0.00,18.9,130.0,"02:11:28",1
"21/05/19","02:30",0.0,19.5,96.2,1006.0,317.0,1.1,1.4,325.8,0.00,18.9,130.0,"02:22:16",1
"21/05/19","02:40",0.0,19.4,96.3,1006.2,293.0,0.8,1.1,313.7,0.00,18.8,130.0,"02:38:00",1
"21/05/19","02:50",0.0,19.3,96.3,1006.2,285.3,0.6,1.1,329.2,0.00,18.7,130.0,"02:46:24",1
"21/05/19","03:00",0.0,19.2,96.4,1006.2,305.9,0.8,1.2,322.4,0.00,18.7,130.0,"02:56:00",1
"21/05/19","03:10",0.0,19.2,96.4,1006.4,309.1,0.8,1.4,313.2,0.00,18.7,130.0,"03:08:16",1
"21/05/19","03:20",0.0,19.2,96.5,1006.0,326.4,0.8,1.4,327.0,0.00,18.7,130.0,"03:10:08",1
"21/05/19","03:30",0.0,19.2,96.5,1006.0,302.4,1.0,1.6,315.6,0.00,18.7,130.0,"03:28:32",1
"21/05/19","03:40",0.0,19.1,96.5,1006.2,251.3,0.5,0.8,297.6,0.00,18.6,130.0,"03:30:08",1
"21/05/19","03:50",0.0,19.1,96.6,1006.2,253.4,0.6,1.0,277.1,0.00,18.6,130.0,"03:48:32",1
"21/05/19","04:00",0.0,19.1,96.6,1006.0,253.9,0.6,1.0,262.7,0.00,18.6,130.0,"03:50:24",1
"21/05/19","04:10",0.0,19.1,96.6,1006.0,301.4,1.1,1.7,322.9,0.00,18.6,130.0,"04:07:12",1
"21/05/19","04:20",0.0,19.1,96.6,1006.4,292.1,0.3,1.3,318.4,0.00,18.6,130.0,"04:11:28",1
"21/05/19","04:30",0.0,19.2,96.7,1006.2,307.5,0.6,1.4,317.0,0.00,18.7,130.0,"04:20:02",1
"21/05/19","04:40",0.0,19.2,96.7,1006.0,313.5,1.1,1.4,319.3,0.00,18.7,130.0,"04:34:40",1
"21/05/19","04:50",0.0,19.2,96.7,1006.2,318.5,1.1,1.7,332.7,0.00,18.7,130.0,"04:43:36",1
"21/05/19","05:00",0.0,19.2,96.7,1006.4,314.5,0.8,1.7,329.6,0.00,18.7,130.0,"04:51:12",1
"21/05/19","05:10",0.0,19.1,96.7,1006.4,294.6,0.8,1.3,313.4,0.00,18.6,130.0,"05:08:32",1
"21/05/19","05:20",0.0,19.2,96.8,1006.4,302.2,1.3,2.1,332.8,0.00,18.7,130.0,"05:18:32",1
"21/05/19","05:30",0.0,19.1,96.8,1006.7,315.6,1.0,1.6,334.6,0.00,18.6,130.0,"05:20:32",1
"21/05/19","05:40",0.0,19.0,96.9,1006.9,254.6,0.8,1.3,246.8,0.00,18.5,130.0,"05:36:08",1
"21/05/19","05:50",0.0,19.1,96.9,1006.7,299.5,0.8,1.3,318.4,0.00,18.6,130.0,"05:42:16",1
"21/05/19","06:00",0.0,19.2,97.0,1006.9,314.4,0.8,1.6,334.0,0.00,18.8,130.0,"05:58:32",1
"21/05/19","06:10",0.0,19.3,97.0,1006.4,309.3,1.2,2.4,330.5,0.01,18.9,130.0,"06:01:36",1
"21/05/19","06:20",0.0,19.4,97.0,1006.7,271.6,0.5,0.9,263.6,0.01,19.0,130.0,"06:17:36",1
"21/05/19","06:30",0.0,19.5,97.0,1006.4,275.5,0.7,1.1,250.4,0.00,19.1,130.0,"06:29:28",1
"21/05/19","06:40",0.0,19.5,97.0,1006.9,267.2,0.5,1.0,272.3,0.00,19.1,130.0,"06:30:40",1
"21/05/19","06:50",0.0,19.7,97.0,1006.7,308.0,0.7,1.1,319.6,0.02,19.3,130.0,"06:43:12",1
"21/05/19","07:00",0.0,19.8,97.0,1006.4,339.8,0.3,1.0,333.9,0.01,19.4,130.0,"06:51:12",1
"21/05/19","07:10",0.0,19.7,96.9,1006.7,232.7,0.2,0.5,250.8,0.00,19.2,130.0,"07:07:28",1
"21/05/19","07:20",0.0,19.7,97.0,1006.7,313.6,1.0,1.3,323.7,0.01,19.3,130.0,"07:14:48",1
"21/05/19","07:30",0.0,20.0,97.0,1006.4,327.9,0.7,1.4,332.2,0.04,19.5,130.0,"07:20:02",1
"21/05/19","07:40",0.0,20.0,97.0,1006.7,325.0,1.0,1.6,328.2,0.00,19.5,130.0,"07:30:16",1
"21/05/19","07:50",0.0,20.0,97.0,1006.4,318.5,0.6,1.1,322.7,0.01,19.5,130.0,"07:45:44",1
"21/05/19","08:00",0.0,20.1,96.9,1006.4,312.4,0.7,1.0,336.7,0.02,19.6,130.0,"07:54:32",1
"21/05/19","08:10",0.0,20.3,97.0,1006.4,287.7,0.2,0.4,279.1,0.03,19.8,130.0,"08:00:48",1
"21/05/19","08:20",0.0,20.4,96.9,1006.2,276.8,0.1,0.3,276.5,0.04,19.9,130.0,"08:12:16",1
"21/05/19","08:30",0.0,20.6,96.9,1006.2,283.6,0.3,0.6,308.6,0.04,20.1,130.0,"08:21:36",1
"21/05/19","08:40",0.0,20.5,96.9,1006.2,311.3,0.8,1.3,325.7,0.02,20.0,130.0,"08:34:40",1
"21/05/19","08:50",0.0,20.4,97.0,1006.4,319.6,1.1,1.4,319.4,0.02,19.9,130.0,"08:44:08",1
"21/05/19","09:00",0.0,20.5,97.0,1006.7,326.7,1.1,1.9,335.6,0.04,20.0,130.0,"08:52:24",1
"21/05/19","09:10",0.2,20.7,97.0,1006.7,328.9,0.8,1.3,333.4,0.06,20.2,130.0,"09:00:32",1
"21/05/19","09:20",0.0,20.7,97.0,1006.7,324.4,1.1,1.8,332.9,0.07,20.2,130.0,"09:10:02",1
"21/05/19","09:30",0.2,20.9,96.9,1006.4,321.9,1.1,1.8,336.9,0.08,20.4,130.0,"09:22:00",1
"21/05/19","09:40",0.2,20.9,96.9,1006.4,299.3,0.5,1.2,322.3,0.06,20.4,130.0,"09:38:48",1
"21/05/19","09:50",0.0,20.9,96.8,1006.4,266.5,0.6,0.9,259.7,0.05,20.4,130.0,"09:43:04",1
"21/05/19","10:00",0.0,20.9,96.9,1006.7,272.3,0.5,1.1,307.4,0.04,20.4,130.0,"09:56:32",1
"21/05/19","10:10",0.2,20.8,96.9,1006.7,315.2,0.8,1.3,341.6,0.03,20.3,130.0,"10:06:16",1
"21/05/19","10:20",0.2,20.8,96.9,1006.7,289.5,0.6,1.2,338.9,0.03,20.3,130.0,"10:10:24",1
"21/05/19","10:30",0.2,20.8,96.9,1006.4,297.3,0.6,1.1,333.3,0.04,20.3,130.0,"10:24:40",1
"21/05/19","10:40",0.0,20.8,96.9,1006.7,301.3,0.6,1.1,322.5,0.04,20.3,130.0,"10:38:32",1
"21/05/19","10:50",0.2,20.9,97.0,1006.4,331.3,0.5,1.1,319.6,0.06,20.4,130.0,"10:43:12",1
"21/05/19","11:00",0.2,21.1,97.0,1006.2,145.8,0.5,1.7,144.2,0.10,20.6,130.0,"10:54:24",1
"21/05/19","11:10",0.0,20.9,96.8,1006.7,334.7,1.1,1.9,339.7,0.05,20.4,130.0,"11:06:08",1
"21/05/19","11:20",0.0,21.0,96.8,1006.4,338.7,0.6,1.4,335.4,0.06,20.5,130.0,"11:18:24",1
"21/05/19","11:30",0.0,21.0,96.8,1006.9,341.4,0.8,1.6,339.7,0.05,20.5,130.0,"11:22:00",1
"21/05/19","11:40",0.0,20.9,96.7,1006.0,150.9,0.6,1.6,163.8,0.07,20.4,130.0,"11:38:56",1
"21/05/19","11:50",0.0,21.0,96.7,1006.2,57.2,0.5,1.1,121.5,0.09,20.5,130.0,"11:40:24",1
"21/05/19","12:00",0.2,21.0,96.7,1006.0,21.5,0.5,1.3,96.4,0.08,20.5,130.0,"11:57:36",1
"21/05/19","12:10",0.2,21.2,96.7,1006.0,354.3,0.5,1.4,357.8,0.11,20.7,130.0,"12:01:52",1
"21/05/19","12:20",0.2,21.0,96.4,1006.2,336.7,1.5,2.2,345.9,0.09,20.4,130.0,"12:17:44",1
"21/05/19","12:30",0.0,20.8,96.5,1006.2,335.0,1.2,1.9,343.2,0.04,20.3,130.0,"12:20:40",1
"21/05/19","12:40",0.2,20.9,96.5,1006.0,299.2,0.8,1.3,297.1,0.03,20.4,130.0,"12:33:12",1
"21/05/19","12:50",0.0,20.7,96.4,1006.4,316.2,1.0,1.9,322.7,0.04,20.1,130.0,"12:46:56",1
"21/05/19","13:00",0.2,20.7,96.4,1006.0,322.8,1.2,2.0,332.4,0.03,20.1,130.0,"12:52:00",1
"21/05/19","13:10",0.0,20.6,96.4,1006.0,315.5,1.2,1.8,327.5,0.04,20.0,130.0,"13:04:32",1
"21/05/19","13:20",0.2,21.0,96.3,1005.7,323.1,0.7,1.4,341.2,0.06,20.4,130.0,"13:11:36",1
"21/05/19","13:30",0.0,21.0,96.2,1006.2,336.8,1.3,2.0,327.9,0.07,20.4,130.0,"13:26:08",1
"21/05/19","13:40",0.0,21.2,96.1,1006.0,347.4,1.0,2.0,344.6,0.09,20.6,130.0,"13:31:28",1
"21/05/19","13:50",0.0,21.4,96.0,1005.7,357.3,1.0,2.0,336.7,0.14,20.8,130.0,"13:47:36",1
"21/05/19","14:00",0.0,21.5,95.8,1006.0,345.0,1.1,2.0,334.1,0.13,20.8,130.0,"13:51:20",1
"21/05/19","14:10",0.0,21.9,95.7,1006.0,356.4,0.8,1.6,348.3,0.16,21.2,130.0,"14:00:16",1
"21/05/19","14:20",0.0,22.2,95.3,1006.0,287.2,0.7,1.4,317.8,0.13,21.5,130.0,"14:12:40",1
"21/05/19","14:30",0.0,22.0,95.1,1005.7,304.0,1.0,2.0,331.1,0.09,21.2,130.0,"14:21:20",1
"21/05/19","14:40",0.0,21.9,94.7,1006.0,315.3,1.2,2.5,345.7,0.13,21.1,130.0,"14:34:00",1
"21/05/19","14:50",0.0,22.0,94.5,1006.2,318.2,1.2,2.7,342.0,0.11,21.1,130.0,"14:42:40",1
"21/05/19","15:00",0.0,21.8,93.8,1006.2,326.6,1.7,3.5,344.5,0.12,20.8,130.0,"14:59:44",1
"21/05/19","15:10",0.0,22.0,93.1,1006.2,330.4,1.8,3.5,354.7,0.12,20.9,130.0,"15:01:28",1
"21/05/19","15:20",0.0,21.8,92.5,1006.4,332.9,2.2,3.2,323.5,0.06,20.6,130.0,"15:11:20",1
"21/05/19","15:30",0.0,21.7,91.8,1006.2,329.8,2.1,3.9,343.5,0.06,20.3,130.0,"15:27:12",1
"21/05/19","15:40",0.0,21.8,91.1,1006.0,321.8,1.8,3.4,338.0,0.09,20.3,130.0,"15:39:52",1
"21/05/19","15:50",0.0,21.8,90.4,1006.0,328.7,2.5,4.8,341.4,0.05,20.2,130.0,"15:45:04",1
"21/05/19","16:00",0.0,21.6,90.0,1006.0,325.5,2.0,3.6,327.3,0.02,19.9,130.0,"15:52:00",1
"21/05/19","16:10",0.0,21.6,89.8,1006.0,321.7,2.1,4.0,338.2,0.05,19.9,130.0,"16:02:24",1
"21/05/19","16:20",0.0,21.6,89.7,1006.0,290.5,1.5,3.7,335.1,0.03,19.9,130.0,"16:16:16",1
"21/05/19","16:30",0.0,21.6,89.8,1005.5,292.7,1.1,1.9,263.5,0.06,19.9,130.0,"16:24:56",1
"21/05/19","16:40",0.0,21.6,89.6,1005.7,304.0,1.3,2.1,324.2,0.07,19.9,130.0,"16:33:28",1
"21/05/19","16:50",0.0,21.5,89.6,1005.7,315.0,1.5,3.2,346.3,0.05,19.8,130.0,"16:44:08",1
"21/05/19","17:00",0.0,21.5,89.6,1006.2,328.5,2.0,3.6,338.8,0.07,19.8,130.0,"16:55:52",1
"21/05/19","17:10",0.0,21.9,89.6,1005.7,291.3,1.3,3.2,338.9,0.11,20.2,130.0,"17:00:32",1
"21/05/19","17:20",0.0,22.3,89.1,1005.7,307.4,1.2,3.3,348.6,0.16,20.5,130.0,"17:15:52",1
"21/05/19","17:30",0.0,22.6,87.6,1006.0,332.6,2.5,4.3,337.1,0.13,20.5,130.0,"17:21:52",1
"21/05/19","17:40",0.0,22.7,86.3,1006.2,324.4,2.3,3.7,339.3,0.10,20.3,130.0,"17:33:36",1
"21/05/19","17:50",0.0,22.8,85.0,1006.4,334.5,2.1,4.4,348.1,0.08,20.2,130.0,"17:49:28",1
"21/05/19","18:00",0.0,22.9,84.7,1006.4,339.7,1.7,3.4,337.8,0.07,20.2,130.0,"17:53:20",1
"21/05/19","18:10",0.0,22.6,84.1,1006.4,328.8,2.0,3.1,335.9,0.04,19.8,130.0,"18:00:40",1
"21/05/19","18:20",0.0,22.0,84.9,1006.0,329.6,2.1,3.6,322.7,0.02,19.4,130.0,"18:10:56",1
"21/05/19","18:30",0.0,21.7,85.8,1006.7,329.8,1.7,2.7,335.2,0.01,19.3,130.0,"18:25:52",1
"21/05/19","18:40",0.0,21.4,86.6,1006.4,312.6,1.5,2.9,329.2,0.00,19.1,130.0,"18:33:44",1
"21/05/19","18:50",0.0,21.2,87.3,1006.4,322.5,1.6,2.8,335.0,0.00,19.0,130.0,"18:43:52",1
"21/05/19","19:00",0.0,21.0,87.9,1006.7,339.4,1.6,2.9,330.2,0.00,19.0,130.0,"18:52:48",1
"21/05/19","19:10",0.0,20.7,88.5,1006.9,334.3,1.3,2.5,328.9,0.00,18.8,130.0,"19:04:16",1
"21/05/19","19:20",0.0,20.7,89.1,1006.9,347.8,1.0,2.1,323.5,0.00,18.9,130.0,"19:12:00",1
"21/05/19","19:30",0.0,20.6,89.5,1006.9,313.4,1.1,1.6,331.1,0.00,18.9,130.0,"19:21:36",1
"21/05/19","19:40",0.0,20.5,90.0,1006.9,304.2,1.0,1.7,318.2,0.00,18.8,130.0,"19:34:16",1
"21/05/19","19:50",0.0,20.4,90.3,1006.9,319.6,1.0,1.7,344.9,0.00,18.8,130.0,"19:43:12",1
"21/05/19","20:00",0.0,20.4,90.7,1007.4,309.8,1.3,2.0,315.7,0.00,18.9,130.0,"19:52:32",1
"21/05/19","20:10",0.0,20.5,90.8,1007.4,335.3,1.0,1.6,340.4,0.00,19.0,130.0,"20:00:08",1
"21/05/19","20:20",0.0,20.4,91.0,1007.8,328.9,0.8,1.2,317.6,0.00,18.9,130.0,"20:10:16",1
"21/05/19","20:30",0.0,20.2,91.2,1008.3,351.2,0.6,1.2,344.5,0.00,18.8,130.0,"20:20:56",1
"21/05/19","20:40",0.0,20.0,91.4,1008.3,5.9,0.5,1.4,336.3,0.00,18.6,130.0,"20:38:32",1
"21/05/19","20:50",0.0,19.6,91.6,1008.6,315.8,1.1,1.4,332.4,0.00,18.2,130.0,"20:44:56",1
"21/05/19","21:00",0.0,19.4,92.0,1008.6,349.0,0.8,1.8,339.6,0.00,18.1,130.0,"20:57:44",1
"21/05/19","21:10",0.0,19.1,92.4,1008.3,331.5,1.3,2.4,339.2,0.00,17.9,130.0,"21:00:02",1
"21/05/19","21:20",0.0,19.0,92.7,1008.8,333.2,1.6,2.7,336.2,0.00,17.8,130.0,"21:15:44",1
"21/05/19","21:30",0.0,18.9,92.9,1009.0,331.7,1.6,2.2,325.9,0.00,17.8,130.0,"21:25:12",1
"21/05/19","21:40",0.0,18.6,93.1,1009.3,330.6,1.6,2.4,334.4,0.00,17.5,130.0,"21:31:04",1
"21/05/19","21:50",0.0,18.4,93.3,1009.3,325.8,0.5,2.0,331.9,0.00,17.3,130.0,"21:40:40",1
"21/05/19","22:00",0.0,18.1,93.5,1009.5,321.3,1.2,2.1,322.0,0.00,17.1,130.0,"21:58:56",1
"21/05/19","22:10",0.0,18.1,93.9,1009.5,312.6,1.6,2.1,329.1,0.00,17.1,130.0,"22:06:08",1
"21/05/19","22:20",0.0,18.2,94.0,1009.7,320.0,1.8,2.8,331.5,0.00,17.3,130.0,"22:16:32",1
"21/05/19","22:30",0.0,18.3,94.2,1009.5,328.0,2.1,3.2,331.0,0.00,17.4,130.0,"22:23:28",1
"21/05/19","22:40",0.0,18.2,94.2,1009.5,321.9,1.5,2.7,329.2,0.00,17.3,130.0,"22:33:20",1
"21/05/19","22:50",0.0,18.0,94.4,1010.0,333.7,1.6,2.4,328.0,0.00,17.1,130.0,"22:40:24",1
"21/05/19","23:00",0.0,17.8,94.6,1010.0,332.4,1.6,2.8,345.9,0.00,17.0,130.0,"22:58:00",1
"21/05/19","23:10",0.0,17.7,94.7,1010.0,331.0,1.7,3.2,339.4,0.00,16.9,130.0,"23:07:20",1
"21/05/19","23:20",0.0,17.7,94.8,1010.2,334.1,1.6,2.4,323.3,0.00,16.9,130.0,"23:10:32",1
"21/05/19","23:30",0.0,17.8,94.9,1010.2,332.3,2.0,2.9,333.6,0.00,17.0,130.0,"23:26:16",1
"21/05/19","23:40",0.0,17.8,95.0,1009.7,329.4,1.7,2.7,336.3,0.00,17.0,130.0,"23:30:32",1
"21/05/19","23:50",0.0,17.7,95.0,1009.7,325.9,1.7,2.8,339.1,0.00,16.9,130.0,"23:48:00",1
"21/05/19","24:00",0.0,17.7,95.1,1010.0,325.3,2.6,3.9,327.5,0.00,16.9,130.0,"23:55:28",1
